EZY45SD EGAA-EGNS

Flight info

Callsign EZY45SD
Flight time 0h 16m
Altitude 15000
Route LISBO DCT RINGA
Aircraft A319/M-SDE3FGHIRWY/LB1

Departure

Time 2026-05-07 16:32
Airport Belfast International Airport (EGAA)

Arrival

Time 2026-05-07 16:49
Airport Isle of Man Airport (EGNS)
Time Latitude Longitude Altitude Speed Heading
2026-05-07 16:22 54.66122 -6.21139 272 ft 0 kts 68°
2026-05-07 16:28 54.66115 -6.21167 276 ft 3 kts 68°
2026-05-07 16:28 54.66108 -6.21198 276 ft 3 kts 68°
2026-05-07 16:28 54.66105 -6.21207 274 ft 0 kts 76°
2026-05-07 16:28 54.66104 -6.21219 272 ft 3 kts 92°
2026-05-07 16:29 54.66109 -6.21250 272 ft 3 kts 136°
2026-05-07 16:29 54.66112 -6.21256 280 ft 0 kts 147°
2026-05-07 16:30 54.66102 -6.21244 272 ft 5 kts 146°
2026-05-07 16:30 54.66056 -6.21206 274 ft 10 kts 162°
2026-05-07 16:31 54.66010 -6.21287 272 ft 11 kts 246°
2026-05-07 16:31 54.65963 -6.21381 272 ft 11 kts 190°
2026-05-07 16:31 54.65891 -6.21350 272 ft 11 kts 155°
2026-05-07 16:31 54.65818 -6.21331 275 ft 10 kts 220°
2026-05-07 16:32 54.65779 -6.21465 272 ft 20 kts 245°
2026-05-07 16:32 54.65589 -6.22150 274 ft 104 kts 245°
2026-05-07 16:32 54.65211 -6.23540 601 ft 133 kts 238°
2026-05-07 16:32 54.64826 -6.24984 1350 ft 133 kts 242°
2026-05-07 16:33 54.64412 -6.26529 1890 ft 152 kts 237°
2026-05-07 16:33 54.63564 -6.27738 2349 ft 175 kts 199°
2026-05-07 16:33 54.62264 -6.27626 2758 ft 211 kts 157°
2026-05-07 16:33 54.61051 -6.25893 3378 ft 242 kts 137°
2026-05-07 16:34 54.59860 -6.23637 4291 ft 257 kts 134°
2026-05-07 16:34 54.58696 -6.21296 5355 ft 264 kts 133°
2026-05-07 16:34 54.57494 -6.18868 6455 ft 269 kts 134°
2026-05-07 16:34 54.56244 -6.16368 7503 ft 274 kts 134°
2026-05-07 16:35 54.54977 -6.13864 8522 ft 280 kts 134°
2026-05-07 16:35 54.53675 -6.11316 9542 ft 286 kts 135°
2026-05-07 16:35 54.52450 -6.08557 10489 ft 295 kts 123°
2026-05-07 16:35 54.51563 -6.05266 11186 ft 315 kts 115°
2026-05-07 16:36 54.50701 -6.01712 11602 ft 337 kts 115°
2026-05-07 16:36 54.49790 -5.97917 12327 ft 348 kts 114°
2026-05-07 16:36 54.48859 -5.94033 13205 ft 354 kts 114°
2026-05-07 16:36 54.47912 -5.90089 14052 ft 359 kts 115°
2026-05-07 16:37 54.46947 -5.86094 14683 ft 364 kts 115°
2026-05-07 16:37 54.45969 -5.82066 14884 ft 365 kts 115°
2026-05-07 16:37 54.44981 -5.78016 14953 ft 371 kts 115°
2026-05-07 16:37 54.43990 -5.73966 14570 ft 365 kts 115°
2026-05-07 16:38 54.43007 -5.69965 14048 ft 363 kts 115°
2026-05-07 16:38 54.42025 -5.65980 13517 ft 361 kts 115°
2026-05-07 16:38 54.41052 -5.62029 12991 ft 357 kts 115°
2026-05-07 16:38 54.40060 -5.58147 12482 ft 352 kts 119°
2026-05-07 16:39 54.38744 -5.54648 11979 ft 346 kts 130°
2026-05-07 16:39 54.37277 -5.51404 11485 ft 343 kts 130°
2026-05-07 16:39 54.35830 -5.48181 10988 ft 340 kts 130°
2026-05-07 16:39 54.34396 -5.44980 10490 ft 337 kts 129°
2026-05-07 16:40 54.32991 -5.41848 10282 ft 323 kts 129°
2026-05-07 16:40 54.31670 -5.38900 10079 ft 303 kts 130°
2026-05-07 16:40 54.30408 -5.36086 9660 ft 293 kts 130°
2026-05-07 16:40 54.29167 -5.33331 9528 ft 292 kts 130°
2026-05-07 16:41 54.27924 -5.30587 9388 ft 291 kts 130°
2026-05-07 16:41 54.26681 -5.27851 8931 ft 291 kts 130°
2026-05-07 16:41 54.25437 -5.25117 8410 ft 292 kts 130°
2026-05-07 16:41 54.24198 -5.22399 7885 ft 285 kts 130°
2026-05-07 16:42 54.23398 -5.20641 7556 ft 281 kts 130°
2026-05-07 16:42 54.22161 -5.18177 7241 ft 263 kts 137°
2026-05-07 16:42 54.20895 -5.16087 7067 ft 245 kts 139°
2026-05-07 16:42 54.19676 -5.14110 6779 ft 239 kts 139°
2026-05-07 16:43 54.18475 -5.12168 6502 ft 236 kts 139°
2026-05-07 16:43 54.17290 -5.10257 6087 ft 233 kts 139°
2026-05-07 16:43 54.16115 -5.08363 5634 ft 233 kts 139°
2026-05-07 16:43 54.15048 -5.06301 5364 ft 233 kts 124°
2026-05-07 16:44 54.14193 -5.03949 5303 ft 233 kts 125°
2026-05-07 16:44 54.13314 -5.01627 5147 ft 233 kts 126°
2026-05-07 16:44 54.12433 -4.99321 4988 ft 232 kts 126°
2026-05-07 16:44 54.11555 -4.97019 4566 ft 230 kts 126°
2026-05-07 16:45 54.10681 -4.94728 4219 ft 231 kts 125°
2026-05-07 16:45 54.09808 -4.92439 3887 ft 230 kts 126°
2026-05-07 16:45 54.08940 -4.90160 3560 ft 228 kts 125°
2026-05-07 16:45 54.08083 -4.87900 3239 ft 227 kts 125°
2026-05-07 16:46 54.07233 -4.85647 2929 ft 225 kts 123°
2026-05-07 16:46 54.06711 -4.83195 2707 ft 219 kts 101°
2026-05-07 16:46 54.06771 -4.80647 2419 ft 214 kts 85°
2026-05-07 16:46 54.06981 -4.78203 2118 ft 207 kts 84°
2026-05-07 16:47 54.07173 -4.75796 1653 ft 201 kts 88°
2026-05-07 16:47 54.07111 -4.73566 1489 ft 179 kts 97°
2026-05-07 16:47 54.07196 -4.71595 1273 ft 153 kts 83°
2026-05-07 16:47 54.07375 -4.69924 1060 ft 135 kts 83°
2026-05-07 16:48 54.07556 -4.68397 801 ft 132 kts 82°
2026-05-07 16:48 54.07763 -4.66859 594 ft 133 kts 81°
2026-05-07 16:48 54.07955 -4.65361 321 ft 125 kts 81°
2026-05-07 16:48 54.08135 -4.63945 113 ft 122 kts 82°
2026-05-07 16:49 54.08306 -4.62541 42 ft 110 kts 81°
2026-05-07 16:49 54.08408 -4.61710 43 ft 49 kts 76°
2026-05-07 16:49 54.08465 -4.61443 42 ft 12 kts 33°
2026-05-07 16:49 54.08527 -4.61488 43 ft 11 kts 295°